• In Österreich
  • Länderverzeichnis
  • Für 7 Tage
  • Wassertemperatur
  • Satellitenkarten
  • Wetterkarte
  • News
  • Widgets
  • user-avatar
    Anmelden

    Stündliche Wetter San Miguel de Tucumán

    Heute, 22 Februar, Donnerstag

    Zeit Temperatur Niederschläge Wind Luftdruck Luftfeuchtigkeit
    00:00 +23°C° 0 mm 1 m/S 722 mmHg 73%
    01:00 +23°C° 0 mm 1 m/S 722 mmHg 75%
    02:00 +22°C° 0 mm 1 m/S 722 mmHg 76%
    03:00 +22°C° 0 mm 1 m/S 721 mmHg 77%
    04:00 +22°C° 0 mm 1 m/S 721 mmHg 77%
    05:00 +22°C° 0 mm 1 m/S 721 mmHg 78%
    06:00 +23°C° 0 mm 1 m/S 722 mmHg 74%
    07:00 +24°C° 0 mm 1 m/S 722 mmHg 71%
    08:00 +25°C° 0 mm 1 m/S 723 mmHg 67%
    09:00 +27°C° 0 mm 1 m/S 723 mmHg 63%
    10:00 +28°C° 0 mm 2 m/S 723 mmHg 58%
    11:00 +30°C° 0 mm 2 m/S 723 mmHg 53%
    12:00 +30°C° 0 mm 2 m/S 722 mmHg 53%
    13:00 +30°C° 0 mm 2 m/S 722 mmHg 53%
    14:00 +30°C° 0 mm 2 m/S 721 mmHg 53%
    15:00 +30°C° 0 mm 2 m/S 720 mmHg 54%
    16:00 +30°C° 0 mm 2 m/S 720 mmHg 54%
    17:00 +30°C° 0 mm 2 m/S 719 mmHg 55%
    18:00 +29°C° 0 mm 1 m/S 719 mmHg 59%
    19:00 +27°C° 0 mm 1 m/S 719 mmHg 63%
    20:00 +26°C° 0 mm 1 m/S 720 mmHg 66%
    21:00 +26°C° 0,1 mm 1 m/S 720 mmHg 67%
    22:00 +25°C° 0,1 mm 1 m/S 720 mmHg 69%
    23:00 +25°C° 0,1 mm 1 m/S 721 mmHg 70%

    Morgen, 23 Februar, Freitag

    Zeit Temperatur Niederschläge Wind Luftdruck Luftfeuchtigkeit
    00:00 +25°C° 0 mm 1 m/S 720 mmHg 71%
    01:00 +24°C° 0 mm 1 m/S 720 mmHg 72%
    02:00 +24°C° 0 mm 1 m/S 720 mmHg 74%
    03:00 +24°C° 0 mm 1 m/S 720 mmHg 74%
    04:00 +23°C° 0 mm 1 m/S 720 mmHg 74%
    05:00 +23°C° 0 mm 1 m/S 720 mmHg 74%
    06:00 +24°C° 0 mm 1 m/S 720 mmHg 72%
    07:00 +25°C° 0 mm 2 m/S 720 mmHg 69%
    08:00 +25°C° 0 mm 2 m/S 721 mmHg 67%
    09:00 +27°C° 0 mm 2 m/S 721 mmHg 60%
    10:00 +29°C° 0 mm 3 m/S 721 mmHg 52%
    11:00 +31°C° 0 mm 3 m/S 721 mmHg 45%
    12:00 +31°C° 0 mm 3 m/S 720 mmHg 43%
    13:00 +33°C° 0 mm 3 m/S 720 mmHg 41%
    14:00 +33°C° 0 mm 3 m/S 719 mmHg 40%
    15:00 +33°C° 0 mm 3 m/S 718 mmHg 41%
    16:00 +33°C° 0 mm 3 m/S 718 mmHg 42%
    17:00 +32°C° 0 mm 2 m/S 718 mmHg 43%
    18:00 +30°C° 0 mm 2 m/S 718 mmHg 47%
    19:00 +28°C° 0 mm 1 m/S 718 mmHg 52%
    20:00 +26°C° 0 mm 1 m/S 719 mmHg 57%
    21:00 +26°C° 0 mm 1 m/S 720 mmHg 58%
    22:00 +25°C° 0 mm 1 m/S 720 mmHg 59%
    23:00 +25°C° 0 mm 1 m/S 721 mmHg 60%

    übermorgen, 24 Februar, Samstag

    Zeit Temperatur Niederschläge Wind Luftdruck Luftfeuchtigkeit
    00:00 +24°C° 0 mm 1 m/S 721 mmHg 62%
    01:00 +24°C° 0 mm 1 m/S 720 mmHg 65%
    02:00 +23°C° 0 mm 1 m/S 720 mmHg 67%
    03:00 +23°C° 0 mm 1 m/S 720 mmHg 68%
    04:00 +22°C° 0 mm 1 m/S 720 mmHg 68%
    05:00 +22°C° 0 mm 1 m/S 720 mmHg 69%
    06:00 +23°C° 0 mm 1 m/S 721 mmHg 67%
    07:00 +24°C° 0 mm 1 m/S 721 mmHg 65%
    08:00 +25°C° 0 mm 1 m/S 722 mmHg 62%
    09:00 +27°C° 0 mm 1 m/S 722 mmHg 58%
    10:00 +29°C° 0 mm 1 m/S 722 mmHg 53%
    11:00 +31°C° 0 mm 1 m/S 722 mmHg 48%
    12:00 +31°C° 0 mm 2 m/S 722 mmHg 48%
    13:00 +31°C° 0 mm 2 m/S 721 mmHg 48%
    14:00 +31°C° 0 mm 2 m/S 720 mmHg 48%
    15:00 +31°C° 0,1 mm 2 m/S 720 mmHg 50%
    16:00 +30°C° 0,1 mm 1 m/S 719 mmHg 52%
    17:00 +30°C° 0,1 mm 1 m/S 719 mmHg 54%
    18:00 +29°C° 0,1 mm 1 m/S 720 mmHg 58%
    19:00 +27°C° 0,1 mm 1 m/S 720 mmHg 61%
    20:00 +26°C° 0,1 mm 1 m/S 720 mmHg 65%
    21:00 +26°C° 0,2 mm 1 m/S 721 mmHg 67%
    22:00 +25°C° 0,2 mm 1 m/S 721 mmHg 68%
    23:00 +25°C° 0,2 mm 1 m/S 722 mmHg 69%

    25 Februar, Sonntag

    Zeit Temperatur Niederschläge Wind Luftdruck Luftfeuchtigkeit
    00:00 +25°C° 0,1 mm 1 m/S 722 mmHg 69%
    01:00 +25°C° 0,1 mm 1 m/S 721 mmHg 70%
    02:00 +24°C° 0,1 mm 1 m/S 721 mmHg 70%
    03:00 +24°C° 0 mm 1 m/S 721 mmHg 72%
    04:00 +23°C° 0 mm 1 m/S 721 mmHg 73%
    05:00 +23°C° 0 mm 1 m/S 721 mmHg 75%
    06:00 +24°C° 0,1 mm 1 m/S 721 mmHg 74%
    07:00 +24°C° 0,1 mm 1 m/S 722 mmHg 73%
    08:00 +25°C° 0,1 mm 1 m/S 722 mmHg 72%
    09:00 +27°C° 0 mm 1 m/S 722 mmHg 65%
    10:00 +28°C° 0 mm 1 m/S 722 mmHg 59%
    11:00 +30°C° 0 mm 2 m/S 722 mmHg 52%
    12:00 +30°C° 0,2 mm 2 m/S 722 mmHg 53%
    13:00 +31°C° 0,2 mm 2 m/S 721 mmHg 53%
    14:00 +31°C° 0,2 mm 2 m/S 720 mmHg 53%
    15:00 +31°C° 0,3 mm 2 m/S 720 mmHg 55%
    16:00 +30°C° 0,3 mm 2 m/S 719 mmHg 56%
    17:00 +30°C° 0,3 mm 1 m/S 719 mmHg 57%
    18:00 +29°C° 0,2 mm 1 m/S 719 mmHg 61%
    19:00 +27°C° 0,2 mm 1 m/S 719 mmHg 65%
    20:00 +26°C° 0,2 mm 1 m/S 720 mmHg 68%
    21:00 +26°C° 0,4 mm 1 m/S 720 mmHg 70%
    22:00 +25°C° 0,4 mm 1 m/S 720 mmHg 72%
    23:00 +25°C° 0,4 mm 1 m/S 721 mmHg 74%

    26 Februar, Montag

    Zeit Temperatur Niederschläge Wind Luftdruck Luftfeuchtigkeit
    00:00 +24°C° 0,6 mm 1 m/S 720 mmHg 76%
    01:00 +24°C° 0,6 mm 1 m/S 720 mmHg 78%
    02:00 +23°C° 0,6 mm 1 m/S 720 mmHg 80%
    03:00 +23°C° 0,6 mm 1 m/S 720 mmHg 81%
    04:00 +23°C° 0,6 mm 1 m/S 720 mmHg 81%
    05:00 +23°C° 0,6 mm 1 m/S 719 mmHg 82%
    06:00 +24°C° 0,5 mm 1 m/S 720 mmHg 79%
    07:00 +25°C° 0,5 mm 1 m/S 720 mmHg 76%
    08:00 +26°C° 0,5 mm 1 m/S 721 mmHg 73%
    09:00 +27°C° 1 mm 1 m/S 720 mmHg 68%
    10:00 +29°C° 1 mm 2 m/S 720 mmHg 63%
    11:00 +31°C° 1 mm 2 m/S 720 mmHg 58%
    12:00 +31°C° 1,2 mm 2 m/S 719 mmHg 59%
    13:00 +31°C° 1,2 mm 2 m/S 718 mmHg 60%
    14:00 +31°C° 1,2 mm 2 m/S 718 mmHg 62%
    15:00 +31°C° 1,8 mm 2 m/S 717 mmHg 64%
    16:00 +30°C° 1,8 mm 1 m/S 717 mmHg 66%
    17:00 +30°C° 1,8 mm 1 m/S 717 mmHg 68%
    18:00 +28°C° 1,8 mm 1 m/S 717 mmHg 74%
    19:00 +26°C° 1,8 mm 1 m/S 717 mmHg 80%
    20:00 +24°C° 1,8 mm 1 m/S 717 mmHg 86%
    21:00 +24°C° 1,4 mm 1 m/S 718 mmHg 87%
    22:00 +24°C° 1,4 mm 1 m/S 718 mmHg 87%
    23:00 +23°C° 1,4 mm 1 m/S 718 mmHg 88%

    27 Februar, Dienstag

    Zeit Temperatur Niederschläge Wind Luftdruck Luftfeuchtigkeit
    00:00 +23°C° 0,4 mm 1 m/S 718 mmHg 87%
    01:00 +23°C° 0,4 mm 1 m/S 718 mmHg 87%
    02:00 +21°C° 0,4 mm 2 m/S 717 mmHg 86%
    03:00 +21°C° 0,3 mm 2 m/S 717 mmHg 84%
    04:00 +22°C° 0,3 mm 1 m/S 717 mmHg 82%
    05:00 +22°C° 0,3 mm 1 m/S 717 mmHg 80%
    06:00 +23°C° 0,6 mm 1 m/S 717 mmHg 76%
    07:00 +25°C° 0,6 mm 1 m/S 718 mmHg 73%
    08:00 +26°C° 0,6 mm 1 m/S 718 mmHg 69%
    09:00 +27°C° 0,7 mm 1 m/S 718 mmHg 65%
    10:00 +29°C° 0,7 mm 1 m/S 718 mmHg 60%
    11:00 +31°C° 0,7 mm 2 m/S 718 mmHg 56%
    12:00 +32°C° 0,4 mm 2 m/S 717 mmHg 54%
    13:00 +32°C° 0,4 mm 2 m/S 716 mmHg 52%
    14:00 +34°C° 0,4 mm 3 m/S 715 mmHg 51%
    15:00 +32°C° 1 mm 2 m/S 715 mmHg 56%
    16:00 +32°C° 1 mm 2 m/S 715 mmHg 60%
    17:00 +31°C° 1 mm 2 m/S 714 mmHg 65%
    18:00 +29°C° 1,3 mm 2 m/S 715 mmHg 70%
    19:00 +28°C° 1,3 mm 1 m/S 715 mmHg 74%
    20:00 +26°C° 1,3 mm 1 m/S 715 mmHg 78%
    21:00 +25°C° 1,1 mm 1 m/S 715 mmHg 80%
    22:00 +25°C° 1,1 mm 1 m/S 716 mmHg 82%
    23:00 +24°C° 1,1 mm 1 m/S 716 mmHg 84%
    Mehr zeigen